Time_in_sec,gx,gy,gz
1314892720.99320722,0.28134449,0.15535191,-0.94694829
1314892721.04452658,0.28137323,0.15556389,-0.94690495
1314892721.09360266,0.28145099,0.15557029,-0.94688079
1314892721.14448833,0.28152894,0.15573625,-0.94683033
1314892721.19469976,0.28155010,0.15485803,-0.94696807
1314892721.24547267,0.28157816,0.15492785,-0.94694831
1314892721.29253340,0.28167964,0.15519093,-0.94687505
1314892721.34552002,0.28178715,0.15478265,-0.94690989
1314892721.39268279,0.28193718,0.15483853,-0.94685609
1314892721.44451737,0.28270900,0.15397832,-0.94676623
1314892721.49261689,0.28290949,0.15397768,-0.94670645
1314892721.54451942,0.28298849,0.15399151,-0.94668059
1314892721.59269214,0.28298687,0.15403359,-0.94667422
1314892721.64452887,0.28291505,0.15405214,-0.94669267
1314892721.69258857,0.28286924,0.15385212,-0.94673889
1314892721.74460506,0.28299798,0.15388162,-0.94669562
1314892721.79261422,0.28303337,0.15378899,-0.94670009
1314892721.84453130,0.28286816,0.15386523,-0.94673708
1314892721.89261627,0.28298076,0.15399698,-0.94668200
1314892721.94563055,0.28309652,0.15388613,-0.94666542
1314892721.99259424,0.28319181,0.15399077,-0.94661990
1314892722.04534006,0.28329905,0.15362074,-0.94664794
1314892722.09261656,0.28332950,0.15360631,-0.94664117
1314892722.14452553,0.28323003,0.15359724,-0.94667240
1314892722.19262791,0.28360493,0.15350203,-0.94657560
1314892722.24461389,0.28361281,0.15362466,-0.94655335
1314892722.29261422,0.28365931,0.15374717,-0.94651952
1314892722.34448695,0.28391466,0.15392694,-0.94641374
1314892722.39253879,0.28401710,0.15405648,-0.94636192
1314892722.44445419,0.28415262,0.15402490,-0.94632638
1314892722.49246740,0.28416504,0.15414634,-0.94630288
1314892722.54444695,0.28424596,0.15427948,-0.94625688
1314892722.59254813,0.28424586,0.15416789,-0.94627509
1314892722.64463162,0.28426821,0.15423327,-0.94625773
1314892722.69359851,0.28442516,0.15408513,-0.94623470
1314892722.74451590,0.28442346,0.15435249,-0.94619163
1314892722.79259276,0.28435684,0.15439737,-0.94620433
1314892722.84547734,0.28423773,0.15458770,-0.94620904
1314892722.89263225,0.28433109,0.15421725,-0.94624144
1314892722.94559836,0.28423651,0.15399877,-0.94630544
1314892722.99206781,0.28413029,0.15408059,-0.94632402
1314892723.04460955,0.28404067,0.15394931,-0.94637229
1314892723.09260869,0.28417300,0.15396489,-0.94633002
1314892723.14457130,0.28423638,0.15420391,-0.94627207
1314892723.19259596,0.28411204,0.15411807,-0.94632340
1314892723.24547935,0.28393092,0.15400460,-0.94639622
1314892723.29359412,0.28398159,0.15380569,-0.94641337
1314892723.34454036,0.28401216,0.15382011,-0.94640185
1314892723.39270854,0.28368856,0.15362886,-0.94652996
1314892723.44152784,0.28383360,0.15367667,-0.94647872
1314892723.49204612,0.28393388,0.15362449,-0.94645711
1314892723.54589772,0.28379565,0.15370005,-0.94648631
1314892723.59424210,0.28401908,0.15371674,-0.94641657
1314892723.64569879,0.28419543,0.15362688,-0.94637822
1314892723.69431877,0.28526754,0.15311263,-0.94613897
1314892723.74452710,0.28534416,0.15299431,-0.94613501
1314892723.79514337,0.28535901,0.15300114,-0.94612942
1314892723.84859037,0.28558404,0.15326225,-0.94601926
1314892723.89252710,0.28565744,0.15306868,-0.94602844
1314892723.94549370,0.28550631,0.15337199,-0.94602494
1314892723.99213004,0.28558255,0.15346468,-0.94598689
1314892724.04551601,0.28555130,0.15347475,-0.94599469
1314892724.09484935,0.28562618,0.15367695,-0.94593926
1314892724.14551854,0.28566568,0.15351395,-0.94595380
1314892724.19253635,0.28565191,0.15343486,-0.94597079
1314892724.24463630,0.28540340,0.15350524,-0.94603438
1314892724.29262328,0.28538717,0.15364571,-0.94601647
1314892724.34544849,0.28552201,0.15345145,-0.94600731
1314892724.39356875,0.28555376,0.15333432,-0.94601672
1314892724.44458127,0.28544829,0.15307809,-0.94609004
1314892724.49311137,0.28513682,0.15315646,-0.94617128
1314892724.54525709,0.28515115,0.15333070,-0.94613874
1314892724.59361267,0.28503532,0.15339550,-0.94616314
1314892724.64450169,0.28399730,0.15316507,-0.94651254
1314892724.69258118,0.28396189,0.15297857,-0.94655333
1314892724.74559927,0.28379384,0.15283351,-0.94662716
1314892724.79361248,0.28375930,0.15281003,-0.94664130
1314892724.84447312,0.28358034,0.15292228,-0.94667680
1314892724.89361119,0.28290554,0.15265458,-0.94692187
1314892724.94451952,0.28288184,0.15277100,-0.94691018
1314892724.99309778,0.28288572,0.15255843,-0.94694329
1314892725.04456139,0.28307336,0.15248247,-0.94689945
1314892725.09310627,0.28312277,0.15240977,-0.94689638
1314892725.14451218,0.28310875,0.15237488,-0.94690619
1314892725.19261074,0.28303638,0.15199035,-0.94698962
1314892725.24451876,0.28315055,0.15178113,-0.94698905
1314892725.29261756,0.28317685,0.15176311,-0.94698407
1314892725.34450388,0.28309883,0.15183964,-0.94699513
1314892725.39267802,0.28301409,0.15184653,-0.94701935
1314892725.44485283,0.28217658,0.15272913,-0.94712733
1314892725.49260116,0.28205751,0.15254911,-0.94719181
1314892725.54475236,0.28194919,0.15257021,-0.94722066
1314892725.59364390,0.28189938,0.15262998,-0.94722586
1314892725.64450288,0.28195950,0.15332298,-0.94709604
1314892725.69262958,0.28163598,0.15356684,-0.94715279
1314892725.74447536,0.28160133,0.15342055,-0.94718680
1314892725.79262376,0.28173604,0.15328094,-0.94716934
1314892725.84549594,0.28178306,0.15316289,-0.94717445
1314892725.89359999,0.28186490,0.15339623,-0.94711234
1314892725.94848633,0.28186836,0.15354856,-0.94708662
1314892725.99258828,0.28182986,0.15348657,-0.94710813
1314892726.04466796,0.28186769,0.15369789,-0.94706260
1314892726.09263492,0.28199334,0.15353810,-0.94705111
1314892726.14553499,0.28177675,0.15500458,-0.94687668
1314892726.19258285,0.28160796,0.15490055,-0.94694392
1314892726.24550486,0.28154951,0.15501581,-0.94694243
1314892726.29417253,0.28163040,0.15498822,-0.94692290
1314892726.34454799,0.28153887,0.15477959,-0.94698424
1314892726.39264297,0.28074824,0.15542923,-0.94711255
1314892726.44453287,0.28049287,0.15558024,-0.94716342
1314892726.49256396,0.28052129,0.15562011,-0.94714845
1314892726.54546785,0.28063970,0.15561256,-0.94711461
1314892726.59254098,0.28058110,0.15539540,-0.94716763
1314892726.64565873,0.28068636,0.15531928,-0.94714893
1314892726.69253206,0.28019374,0.15526214,-0.94730414
1314892726.74575639,0.28003267,0.15547450,-0.94731694
1314892726.79258966,0.28010823,0.15556324,-0.94728003
1314892726.84155965,0.28021563,0.15553212,-0.94725338
1314892726.89253354,0.27965838,0.15571049,-0.94738875
1314892726.94352150,0.27940528,0.15590299,-0.94743176
1314892726.99343181,0.27927469,0.15568137,-0.94750671
1314892727.04408717,0.27942863,0.15568014,-0.94746152
1314892727.09248877,0.27946879,0.15550579,-0.94747831
1314892727.14458585,0.27947071,0.15565883,-0.94745261
1314892727.19357443,0.28013688,0.15533409,-0.94730916
1314892727.24491811,0.28027908,0.15529663,-0.94727324
1314892727.29253244,0.28015504,0.15524604,-0.94731822
1314892727.34458923,0.27998014,0.15510467,-0.94739309
1314892727.39260578,0.28119316,0.15501347,-0.94704870
1314892727.44458151,0.28128871,0.15506512,-0.94701186
1314892727.49309158,0.28122827,0.15503038,-0.94703550
1314892727.54451370,0.28121042,0.15495612,-0.94705296
1314892727.59420896,0.28124082,0.15483625,-0.94706353
1314892727.64552522,0.28130182,0.15394449,-0.94719078
1314892727.69258571,0.28138349,0.15402111,-0.94715407
1314892727.74451923,0.28139236,0.15423279,-0.94711699
1314892727.79252028,0.28168351,0.15414341,-0.94704499
1314892727.84452415,0.28177956,0.15422090,-0.94700380
1314892727.89248466,0.28227311,0.15335865,-0.94699684
1314892727.94455743,0.28217355,0.15336966,-0.94702473
1314892727.99266291,0.28218025,0.15344021,-0.94701130
1314892728.04453683,0.28220614,0.15331056,-0.94702458
1314892728.09252834,0.28222536,0.15333048,-0.94701564
1314892728.14548516,0.28213651,0.15356805,-0.94700361
1314892728.19353509,0.28209720,0.15217509,-0.94724016
1314892728.24461389,0.28224643,0.15229786,-0.94717597
1314892728.29253840,0.28240049,0.15222321,-0.94714205
1314892728.34561181,0.28253398,0.15230285,-0.94708943
1314892728.39262033,0.28265028,0.15226960,-0.94706008
1314892728.44561315,0.28173233,0.15206164,-0.94736696
1314892728.49259925,0.28162593,0.15206332,-0.94739832
1314892728.54461408,0.28143190,0.15218335,-0.94743671
1314892728.59357142,0.28130604,0.15236742,-0.94744450
1314892728.64460850,0.28052903,0.15193849,-0.94774372
1314892728.69259310,0.28031578,0.15212285,-0.94777724
1314892728.74463725,0.28021451,0.15195633,-0.94783390
1314892728.79258609,0.28022947,0.15196017,-0.94782886
1314892728.84543252,0.28023550,0.15209189,-0.94780595
1314892728.89256811,0.27953415,0.15195581,-0.94803486
1314892728.94549918,0.27959477,0.15204094,-0.94800333
1314892728.99360967,0.27952238,0.15208677,-0.94801733
1314892729.04462481,0.27934742,0.15217043,-0.94805547
1314892729.09354353,0.27918342,0.15234543,-0.94807568
1314892729.14559293,0.27911523,0.15239847,-0.94808723
1314892729.19258475,0.27811500,0.15296801,-0.94828943
1314892729.24554157,0.27796423,0.15290312,-0.94834410
1314892729.29258871,0.27831074,0.15270883,-0.94827377
1314892729.34157825,0.27854948,0.15284574,-0.94818161
1314892729.39263964,0.27857399,0.15323351,-0.94811182
1314892729.44555712,0.27857445,0.15314595,-0.94812583
1314892729.49352455,0.27842561,0.15309917,-0.94817711
1314892729.54252291,0.27867115,0.15283641,-0.94814736
1314892729.59388304,0.27846145,0.15265682,-0.94823790
1314892729.64551854,0.27855775,0.15249947,-0.94823493
1314892729.69445968,0.27899684,0.15186323,-0.94820795
1314892729.74428296,0.27880748,0.15182098,-0.94827041
1314892729.79482222,0.27876319,0.15200021,-0.94825472
1314892729.84448743,0.27875357,0.15201211,-0.94825564
1314892729.89408040,0.27818857,0.15165229,-0.94847915
1314892729.94449615,0.27809232,0.15166075,-0.94850603
1314892729.99357605,0.27816832,0.15169127,-0.94847886
1314892730.04451966,0.27795842,0.15170022,-0.94853896
1314892730.09386444,0.27799831,0.15181411,-0.94850905
1314892730.14858866,0.27794315,0.15183468,-0.94852192
1314892730.19286323,0.27777752,0.15212023,-0.94852469
1314892730.24451375,0.27785598,0.15221111,-0.94848713
1314892730.29293489,0.27797077,0.15213036,-0.94846645
1314892730.34452057,0.27790828,0.15224338,-0.94846663
1314892730.39337707,0.27925614,0.15438978,-0.94772349
1314892730.44452405,0.27944767,0.15441162,-0.94766347
1314892730.49307418,0.27948120,0.15443886,-0.94764914
1314892730.54562712,0.27948330,0.15431999,-0.94766789
1314892730.59369659,0.27958776,0.15407079,-0.94767762
1314892730.64449859,0.27941668,0.15499713,-0.94757702
1314892730.69364452,0.27937246,0.15502625,-0.94758529
1314892730.74550343,0.27964734,0.15491040,-0.94752316
1314892730.79350185,0.27948618,0.15484607,-0.94758122
1314892730.84450459,0.27972063,0.15466678,-0.94754132
1314892730.89363027,0.28016162,0.15495187,-0.94736444
1314892730.94450903,0.28009732,0.15491030,-0.94739025
1314892730.99292493,0.28005397,0.15492439,-0.94740076
1314892731.04551363,0.28003058,0.15526535,-0.94735186
1314892731.09359646,0.28019640,0.15519804,-0.94731386
1314892731.14449000,0.28018581,0.15525236,-0.94730809
1314892731.19360781,0.28048538,0.15545564,-0.94718609
1314892731.24460721,0.28049770,0.15547566,-0.94717916
1314892731.29294682,0.28042911,0.15558506,-0.94718151
1314892731.34455109,0.28036071,0.15560586,-0.94719834
1314892731.39281631,0.28084647,0.15582002,-0.94701921
1314892731.44450688,0.28091117,0.15567851,-0.94702329
1314892731.49277282,0.28093963,0.15551216,-0.94704218
1314892731.54458928,0.28071068,0.15557857,-0.94709916
1314892731.59355903,0.28094694,0.15538715,-0.94706053
1314892731.64476752,0.28103535,0.15547922,-0.94701919
1314892731.69259024,0.28056707,0.15582888,-0.94710056
1314892731.74571300,0.28041286,0.15586251,-0.94714070
1314892731.79260540,0.28052996,0.15575537,-0.94712365
1314892731.84486842,0.28044062,0.15557587,-0.94717961
1314892731.89253545,0.28024163,0.15575558,-0.94720897
1314892731.94462633,0.28026752,0.15596639,-0.94716662
1314892731.99262214,0.28033556,0.15603287,-0.94713553
1314892732.04569745,0.28055604,0.15606178,-0.94706548
1314892732.09259176,0.28043768,0.15608615,-0.94709652
1314892732.14459014,0.28027318,0.15620211,-0.94712610
1314892732.19359255,0.28060939,0.15611380,-0.94704110
1314892732.24550509,0.28074638,0.15604461,-0.94701191
1314892732.29258180,0.28054696,0.15602657,-0.94707397
1314892732.34176207,0.28043158,0.15617357,-0.94708391
1314892732.39254403,0.28042903,0.15628682,-0.94706599
1314892732.44458556,0.28042115,0.15628243,-0.94706905
1314892732.49245238,0.28027419,0.15640604,-0.94709214
1314892732.54459071,0.28040583,0.15631818,-0.94706768
1314892732.59350395,0.28060496,0.15619549,-0.94702895
1314892732.64538622,0.28080023,0.15622112,-0.94696684
1314892732.69417143,0.28119974,0.15608890,-0.94687009
1314892732.74543071,0.28135463,0.15625512,-0.94679666
1314892732.79351091,0.28123219,0.15647178,-0.94679725
1314892732.84543490,0.28126633,0.15650246,-0.94678204
1314892732.89251947,0.28132298,0.15659961,-0.94674914
1314892732.94544196,0.28127505,0.15645722,-0.94678693
1314892732.99349880,0.28133998,0.15631461,-0.94679119
1314892733.04507041,0.28125794,0.15621092,-0.94683268
1314892733.09259391,0.28109129,0.15619756,-0.94688437
1314892733.14237690,0.28110597,0.15624067,-0.94687290
1314892733.19221568,0.28157106,0.15617248,-0.94674595
1314892733.24223495,0.28164023,0.15631079,-0.94670255
1314892733.29245901,0.28161995,0.15639934,-0.94669396
1314892733.34564185,0.28163319,0.15664627,-0.94664919
1314892733.39261866,0.28185766,0.15652769,-0.94660200
1314892733.44570708,0.28177904,0.15657955,-0.94661683
1314892733.49245739,0.28198441,0.15658005,-0.94655559
1314892733.54511857,0.28209942,0.15652981,-0.94652963
1314892733.59351110,0.28212692,0.15665343,-0.94650098
1314892733.64458942,0.28224535,0.15669894,-0.94645814
1314892733.69260740,0.28254707,0.15629090,-0.94643558
1314892733.74547243,0.28263887,0.15632419,-0.94640267
1314892733.79249358,0.28276806,0.15651615,-0.94633235
1314892733.84498405,0.28286531,0.15664269,-0.94628235
1314892733.89364457,0.28233389,0.15633736,-0.94649152
1314892733.94498563,0.28240348,0.15642849,-0.94645571
1314892733.99263382,0.28239434,0.15664627,-0.94642241
1314892734.04465818,0.28229853,0.15669080,-0.94644362
1314892734.09257746,0.28230067,0.15674355,-0.94643425
1314892734.14565349,0.28231130,0.15676019,-0.94642832
1314892734.19361210,0.28237756,0.15665230,-0.94642642
1314892734.24462509,0.28222643,0.15661338,-0.94647794
1314892734.29262757,0.28218206,0.15673706,-0.94647070
1314892734.34464836,0.28226310,0.15683171,-0.94643085
1314892734.39267826,0.28242053,0.15671243,-0.94640364
1314892734.44460154,0.28248644,0.15650064,-0.94641902
1314892734.49280930,0.28244306,0.15640678,-0.94644748
1314892734.54488230,0.28238993,0.15637268,-0.94646897
1314892734.59360433,0.28240788,0.15636351,-0.94646513
1314892734.64549136,0.28245151,0.15640897,-0.94644460
1314892734.69262767,0.28242201,0.15623704,-0.94648180
1314892734.74462652,0.28267765,0.15609383,-0.94642911
1314892734.79262877,0.28266218,0.15592845,-0.94646099
1314892734.84528184,0.28278019,0.15608020,-0.94640073
1314892734.89262557,0.28274730,0.15622911,-0.94638598
1314892734.94549894,0.28265958,0.15625573,-0.94640779
1314892734.99370480,0.28262256,0.15614841,-0.94643656
1314892735.04549813,0.28241323,0.15634680,-0.94646629
1314892735.09261513,0.28232128,0.15645754,-0.94647543
1314892735.14163256,0.28244875,0.15643754,-0.94644070
1314892735.19258022,0.28299340,0.15666916,-0.94623967
1314892735.24159384,0.28289160,0.15672035,-0.94626163
1314892735.29258871,0.28279638,0.15633462,-0.94635390
1314892735.34459209,0.28276049,0.15626615,-0.94637593
1314892735.39255643,0.28270141,0.15596636,-0.94644303
1314892735.44460464,0.28226723,0.15554087,-0.94664262
1314892735.49248123,0.28229664,0.15543524,-0.94665120
1314892735.54449296,0.28226542,0.15538699,-0.94666843
1314892735.59419107,0.28243682,0.15521581,-0.94664539
1314892735.64247251,0.28235999,0.15524065,-0.94666424
1314892735.69253254,0.28214659,0.15517985,-0.94673783
1314892735.74151731,0.28214966,0.15525992,-0.94672378
1314892735.79252553,0.28209941,0.15541004,-0.94671413
1314892735.84152675,0.28219792,0.15567473,-0.94664128
1314892735.89251018,0.28227624,0.15565938,-0.94662045
1314892735.94538355,0.28213568,0.15559461,-0.94667300
1314892735.99259162,0.28221702,0.15540805,-0.94667940
1314892736.04542160,0.28213360,0.15540414,-0.94670491
1314892736.09251070,0.28194901,0.15525163,-0.94678492
1314892736.14448881,0.28182976,0.15537980,-0.94679940
1314892736.19249773,0.28160389,0.15524623,-0.94688852
1314892736.24449658,0.28161681,0.15514737,-0.94690087
1314892736.29252720,0.28149004,0.15528529,-0.94691596
1314892736.34529829,0.28161560,0.15520716,-0.94689144
1314892736.39267826,0.28164292,0.15506744,-0.94690620
1314892736.44451427,0.28141143,0.15500577,-0.94698512
1314892736.49321151,0.28144247,0.15499661,-0.94697740
1314892736.54556966,0.28133912,0.15496963,-0.94701252
1314892736.59351420,0.28137801,0.15508011,-0.94698288
1314892736.64447165,0.28107101,0.15472990,-0.94713132
1314892736.69309354,0.28122866,0.15457435,-0.94710993
1314892736.74448466,0.28130352,0.15443812,-0.94710992
1314892736.79308534,0.28137629,0.15433834,-0.94710457
1314892736.84458971,0.28130587,0.15433370,-0.94712624
1314892736.89361715,0.28107652,0.15454081,-0.94716056
1314892736.94461441,0.28084651,0.15457976,-0.94722243
1314892736.99248290,0.28106331,0.15452234,-0.94716749
1314892737.04500294,0.28100672,0.15441954,-0.94720105
1314892737.09360576,0.28082520,0.15423830,-0.94728441
1314892737.14457417,0.28100666,0.15429844,-0.94722080
1314892737.19295621,0.28097819,0.15392849,-0.94728944
1314892737.24496245,0.28106221,0.15398543,-0.94725526
1314892737.29249430,0.28089343,0.15394450,-0.94731197
1314892737.34451556,0.28098711,0.15383871,-0.94730138
1314892737.39261079,0.28098713,0.15392442,-0.94728745
1314892737.44487214,0.27999867,0.15314884,-0.94770574
1314892737.49350405,0.28013392,0.15293093,-0.94770096
1314892737.54461098,0.28007215,0.15297062,-0.94771281
1314892737.59364319,0.28021555,0.15285956,-0.94768835
1314892737.64555931,0.28027013,0.15275086,-0.94768973
1314892737.69362473,0.27998606,0.15290769,-0.94774841
1314892737.74552631,0.27985451,0.15303217,-0.94776717
1314892737.79361320,0.27982157,0.15300421,-0.94778141
1314892737.84451294,0.27983993,0.15294427,-0.94778566
1314892737.89250660,0.27957389,0.15292251,-0.94786768
1314892737.94449973,0.27970856,0.15310334,-0.94779876
1314892737.99247193,0.27972927,0.15332040,-0.94775756
1314892738.04159570,0.27982989,0.15323345,-0.94774192
1314892738.09254980,0.27999914,0.15334619,-0.94767369
1314892738.14449453,0.28018663,0.15301782,-0.94767136
1314892738.19256735,0.27905263,0.15187356,-0.94818988
1314892738.24457502,0.27912950,0.15191511,-0.94816060
1314892738.29257989,0.27907090,0.15178073,-0.94819937
1314892738.34449172,0.27902041,0.15165988,-0.94823356
1314892738.39350629,0.27914091,0.15151902,-0.94822062
1314892738.44449019,0.27822267,0.15184301,-0.94843864
1314892738.49354076,0.27829189,0.15194693,-0.94840168
1314892738.54153490,0.27845136,0.15202668,-0.94834209
1314892738.59444189,0.27839919,0.15186226,-0.94838375
1314892738.64451599,0.27843292,0.15196440,-0.94835749
1314892738.69252300,0.27818798,0.15276103,-0.94830138
1314892738.74561787,0.27806948,0.15288064,-0.94831686
1314892738.79252577,0.27811067,0.15281435,-0.94831547
1314892738.84343863,0.27821534,0.15274760,-0.94829552
